| time (UTC) | temp F | wind direction | speed MPH | gust MPH | rain 1hr in | rain 24hr in | rain mn in | humidity % | barometer mb |
| 20260505140154 | 71 | 306 | 1.0 | 11.0 | 0.00 | 0.00 | 0.00 | 47 | 1004.3 |
| 20260505130118 | 65 | 247 | 0.0 | 6.0 | 0.00 | 0.00 | 0.00 | 51 | 1005.3 |
| 20260505124607 | 65 | 233 | 10.0 | 11.0 | 0.00 | 0.00 | 0.00 | 51 | 1005.0 |
| 20260505124103 | 65 | 260 | 3.0 | 13.0 | 0.00 | 0.00 | 0.00 | 51 | 1004.9 |
| 20260505123559 | 65 | 235 | 7.0 | 12.0 | 0.00 | 0.00 | 0.00 | 50 | 1005.0 |
| 20260505123056 | 66 | 228 | 6.0 | 11.0 | 0.00 | 0.00 | 0.00 | 49 | 1004.9 |
| 20260505122553 | 65 | 257 | 3.0 | 7.0 | 0.00 | 0.00 | 0.00 | 51 | 1004.8 |
| 20260505122050 | 64 | 242 | 7.0 | 8.0 | 0.00 | 0.00 | 0.00 | 52 | 1004.8 |
| 20260505121555 | 64 | 228 | 3.0 | 9.0 | 0.00 | 0.00 | 0.00 | 53 | 1003.2 |
| 20260505121546 | 64 | 218 | 4.0 | 5.0 | 0.00 | 0.00 | 0.00 | 52 | 1004.7 |
| 20260505121043 | 64 | 224 | 4.0 | 5.0 | 0.00 | 0.00 | 0.00 | 54 | 1004.9 |
| 20260505120540 | 63 | 250 | 4.0 | 11.0 | 0.00 | 0.00 | 0.00 | 52 | 1004.6 |
| 20260505120055 | 63 | 234 | 3.0 | 6.0 | 0.00 | 0.00 | 0.00 | 55 | 1003.0 |
| 20260505120035 | 64 | 228 | 5.0 | 6.0 | 0.00 | 0.00 | 0.00 | 53 | 1004.5 |
| 20260505115530 | 63 | 253 | 3.0 | 6.0 | 0.00 | 0.00 | 0.00 | 53 | 1004.5 |
| 20260505115028 | 63 | 253 | 3.0 | 10.0 | 0.00 | 0.00 | 0.00 | 53 | 1004.7 |
| 20260505114555 | 63 | 221 | 3.0 | 12.0 | 0.00 | 0.00 | 0.00 | 54 | 1003.0 |
| 20260505114525 | 63 | 252 | 4.0 | 7.0 | 0.00 | 0.00 | 0.00 | 53 | 1004.5 |
| 20260505114021 | 63 | 240 | 2.0 | 12.0 | 0.00 | 0.00 | 0.00 | 51 | 1004.7 |
| 20260505113518 | 63 | 241 | 6.0 | 8.0 | 0.00 | 0.00 | 0.00 | 53 | 1004.8 |
| 20260505113057 | 63 | 240 | 2.0 | 10.0 | 0.00 | 0.00 | 0.00 | 55 | 1003.0 |
| 20260505113014 | 63 | 224 | 4.0 | 5.0 | 0.00 | 0.00 | 0.00 | 54 | 1004.7 |
| 20260505112510 | 63 | 129 | 0.0 | 5.0 | 0.00 | 0.00 | 0.00 | 53 | 1004.8 |
| 20260505112009 | 63 | 228 | 4.0 | 5.0 | 0.00 | 0.00 | 0.00 | 54 | 1004.7 |
| 20260505111556 | 62 | 229 | 3.0 | 9.0 | 0.00 | 0.00 | 0.00 | 56 | 1002.9 |
| 20260505111508 | 62 | 230 | 5.0 | 8.0 | 0.00 | 0.00 | 0.00 | 54 | 1004.7 |
| 20260505111004 | 62 | 240 | 6.0 | 7.0 | 0.00 | 0.00 | 0.00 | 53 | 1004.6 |
| 20260505110501 | 62 | 312 | 2.0 | 5.0 | 0.00 | 0.00 | 0.00 | 55 | 1004.4 |
| 20260505101933 | 60 | 353 | 0.0 | 6.0 | 0.00 | 0.00 | 0.00 | 55 | 1004.2 |
| 20260505101554 | 60 | 232 | 3.0 | 12.0 | 0.00 | 0.00 | 0.00 | 56 | 1002.5 |
| 20260505101432 | 60 | 228 | 1.0 | 5.0 | 0.00 | 0.00 | 0.00 | 55 | 1004.0 |
| 20260505100928 | 60 | 217 | 2.0 | 9.0 | 0.00 | 0.00 | 0.00 | 55 | 1003.9 |
| 20260505100425 | 60 | 246 | 7.0 | 12.0 | 0.00 | 0.00 | 0.00 | 55 | 1004.0 |
| 20260505100056 | 60 | 228 | 4.0 | 10.0 | 0.00 | 0.00 | 0.00 | 57 | 1002.4 |
| 20260505095921 | 60 | 237 | 6.0 | 9.0 | 0.00 | 0.00 | 0.00 | 55 | 1003.9 |
| 20260505095418 | 60 | 243 | 7.0 | 8.0 | 0.00 | 0.00 | 0.00 | 55 | 1004.0 |
| 20260505094914 | 60 | 254 | 3.0 | 7.0 | 0.00 | 0.00 | 0.00 | 55 | 1003.8 |
| 20260505094555 | 60 | 231 | 3.0 | 12.0 | 0.00 | 0.00 | 0.00 | 57 | 1002.2 |
| 20260505094412 | 60 | 231 | 2.0 | 9.0 | 0.00 | 0.00 | 0.00 | 55 | 1003.7 |
| 20260505093907 | 60 | 226 | 3.0 | 12.0 | 0.00 | 0.00 | 0.00 | 55 | 1004.0 |
| 20260505093404 | 60 | 207 | 3.0 | 13.0 | 0.00 | 0.00 | 0.00 | 54 | 1003.7 |
| 20260505093056 | 60 | 217 | 6.0 | 12.0 | 0.00 | 0.00 | 0.00 | 56 | 1002.2 |
| 20260505092902 | 60 | 216 | 6.0 | 12.0 | 0.00 | 0.00 | 0.00 | 55 | 1003.9 |
| 20260505092400 | 60 | 242 | 3.0 | 9.0 | 0.00 | 0.00 | 0.00 | 55 | 1003.9 |
| 20260505091857 | 60 | 225 | 3.0 | 8.0 | 0.00 | 0.00 | 0.00 | 55 | 1003.7 |
| 20260505091556 | 60 | 226 | 5.0 | 12.0 | 0.00 | 0.00 | 0.00 | 56 | 1002.1 |
| 20260505091354 | 60 | 255 | 5.0 | 9.0 | 0.00 | 0.00 | 0.00 | 55 | 1003.7 |
| 20260505090852 | 60 | 249 | 2.0 | 7.0 | 0.00 | 0.00 | 0.00 | 55 | 1003.6 |
| 20260505090350 | 60 | 221 | 3.0 | 9.0 | 0.00 | 0.00 | 0.00 | 55 | 1003.6 |
| 20260505090055 | 60 | 224 | 3.0 | 12.0 | 0.00 | 0.00 | 0.00 | 57 | 1001.9 |
| 20260505085847 | 60 | 247 | 1.0 | 6.0 | 0.00 | 0.00 | 0.00 | 55 | 1003.5 |
| 20260505085345 | 60 | 209 | 2.0 | 12.0 | 0.00 | 0.00 | 0.00 | 55 | 1003.6 |
| 20260505084843 | 60 | 237 | 10.0 | 14.0 | 0.00 | 0.00 | 0.00 | 55 | 1003.6 |
| 20260505084555 | 61 | 225 | 4.0 | 10.0 | 0.00 | 0.00 | 0.00 | 57 | 1001.9 |
| 20260505084341 | 60 | 229 | 8.0 | 9.0 | 0.00 | 0.00 | 0.00 | 56 | 1003.5 |
| 20260505083838 | 61 | 111 | 3.0 | 5.0 | 0.00 | 0.00 | 0.00 | 55 | 1003.4 |
| 20260505083335 | 60 | 235 | 7.0 | 9.0 | 0.00 | 0.00 | 0.00 | 56 | 1003.5 |
| 20260505083057 | 61 | 225 | 6.0 | 12.0 | 0.00 | 0.00 | 0.00 | 57 | 1001.9 |
| 20260505082832 | 60 | 217 | 5.0 | 12.0 | 0.00 | 0.00 | 0.00 | 56 | 1003.7 |
| 20260505082328 | 61 | 214 | 3.0 | 13.0 | 0.00 | 0.00 | 0.00 | 55 | 1003.7 |
| 20260505081825 | 61 | 233 | 5.0 | 12.0 | 0.00 | 0.00 | 0.00 | 52 | 1003.9 |
| 20260505081556 | 61 | 232 | 3.0 | 12.0 | 0.00 | 0.00 | 0.00 | 53 | 1002.0 |
| 20260505081321 | 61 | 269 | 2.0 | 10.0 | 0.00 | 0.00 | 0.00 | 51 | 1003.7 |
| 20260505080818 | 61 | 61 | 3.0 | 6.0 | 0.00 | 0.00 | 0.00 | 51 | 1003.7 |
| 20260505080314 | 61 | 242 | 6.0 | 10.0 | 0.00 | 0.00 | 0.00 | 51 | 1003.8 |
| 20260505080055 | 61 | 229 | 4.0 | 12.0 | 0.00 | 0.00 | 0.00 | 51 | 1002.1 |
| 20260505075810 | 61 | 225 | 5.0 | 14.0 | 0.00 | 0.00 | 0.00 | 51 | 1003.9 |
| 20260505075307 | 61 | 229 | 11.0 | 12.0 | 0.00 | 0.00 | 0.00 | 50 | 1003.9 |
| 20260505074804 | 61 | 352 | 0.0 | 4.0 | 0.00 | 0.00 | 0.00 | 50 | 1003.6 |
| 20260505074556 | 61 | 233 | 3.0 | 8.0 | 0.00 | 0.00 | 0.00 | 51 | 1001.9 |
| 20260505074301 | 61 | 225 | 3.0 | 9.0 | 0.00 | 0.00 | 0.00 | 49 | 1003.5 |
| 20260505073759 | 61 | 78 | 0.0 | 6.0 | 0.00 | 0.00 | 0.00 | 50 | 1003.5 |
| 20260505073257 | 61 | 297 | 0.0 | 7.0 | 0.00 | 0.00 | 0.00 | 51 | 1003.4 |
| 20260505073055 | 61 | 229 | 1.0 | 12.0 | 0.00 | 0.00 | 0.00 | 51 | 1001.8 |
| 20260505072753 | 61 | 208 | 0.0 | 6.0 | 0.00 | 0.00 | 0.00 | 49 | 1003.6 |
| 20260505072249 | 61 | 17 | 2.0 | 6.0 | 0.00 | 0.00 | 0.00 | 49 | 1003.6 |
| 20260505071745 | 61 | 24 | 2.0 | 10.0 | 0.00 | 0.00 | 0.00 | 49 | 1003.7 |
| 20260505071242 | 61 | 218 | 3.0 | 9.0 | 0.00 | 0.00 | 0.00 | 48 | 1003.4 |
| 20260505070739 | 61 | 225 | 4.0 | 5.0 | 0.00 | 0.00 | 0.00 | 48 | 1003.7 |
| 20260505070236 | 61 | 227 | 5.0 | 5.0 | 0.00 | 0.00 | 0.00 | 50 | 1003.7 |
| 20260505065731 | 61 | 231 | 2.0 | 6.0 | 0.00 | 0.00 | 0.00 | 49 | 1003.6 |
| 20260505065228 | 61 | 200 | 3.0 | 6.0 | 0.00 | 0.00 | 0.00 | 49 | 1003.7 |
| 20260505064725 | 62 | 24 | 3.0 | 3.0 | 0.00 | 0.00 | 0.00 | 48 | 1003.7 |
| 20260505064555 | 62 | 238 | 3.0 | 10.0 | 0.00 | 0.00 | 0.00 | 48 | 1001.9 |
| 20260505064223 | 62 | 227 | 7.0 | 8.0 | 0.00 | 0.00 | 0.00 | 47 | 1003.7 |
| 20260505063720 | 62 | 252 | 3.0 | 12.0 | 0.00 | 0.00 | 0.00 | 47 | 1003.7 |
| 20260505063216 | 62 | 230 | 4.0 | 9.0 | 0.00 | 0.00 | 0.00 | 47 | 1003.7 |
| 20260505063055 | 62 | 229 | 3.0 | 12.0 | 0.00 | 0.00 | 0.00 | 47 | 1002.0 |
| 20260505062713 | 62 | 187 | 2.0 | 11.0 | 0.00 | 0.00 | 0.00 | 47 | 1003.8 |
| 20260505062211 | 62 | 234 | 8.0 | 14.0 | 0.00 | 0.00 | 0.00 | 47 | 1003.9 |
| 20260505061707 | 62 | 233 | 4.0 | 11.0 | 0.00 | 0.00 | 0.00 | 48 | 1003.7 |
| 20260505061554 | 62 | 230 | 5.0 | 13.0 | 0.00 | 0.00 | 0.00 | 47 | 1002.1 |
| 20260505061206 | 62 | 243 | 2.0 | 9.0 | 0.00 | 0.00 | 0.00 | 47 | 1003.9 |
| 20260505060702 | 62 | 244 | 3.0 | 14.0 | 0.00 | 0.00 | 0.00 | 46 | 1003.7 |
| 20260505060159 | 62 | 246 | 5.0 | 6.0 | 0.00 | 0.00 | 0.00 | 46 | 1003.8 |
| 20260505060054 | 62 | 242 | 2.0 | 12.0 | 0.00 | 0.00 | 0.00 | 48 | 1002.3 |
| 20260505055655 | 61 | 235 | 2.0 | 6.0 | 0.00 | 0.00 | 0.00 | 46 | 1003.8 |
| 20260505055151 | 61 | 220 | 4.0 | 6.0 | 0.00 | 0.00 | 0.00 | 47 | 1004.1 |
| 20260505054649 | 62 | 83 | 2.0 | 3.0 | 0.00 | 0.00 | 0.00 | 46 | 1003.9 |
| 20260505054147 | 61 | 221 | 2.0 | 10.0 | 0.00 | 0.00 | 0.00 | 47 | 1003.9 |
| 20260505053644 | 61 | 244 | 3.0 | 4.0 | 0.00 | 0.00 | 0.00 | 47 | 1004.1 |
| 20260505053140 | 61 | 317 | 2.0 | 3.0 | 0.00 | 0.00 | 0.00 | 47 | 1004.1 |
| 20260505053056 | 61 | 243 | 1.0 | 7.0 | 0.00 | 0.00 | 0.00 | 48 | 1002.4 |
| 20260505052638 | 61 | 233 | 4.0 | 7.0 | 0.00 | 0.00 | 0.00 | 47 | 1004.1 |
| 20260505052135 | 61 | 226 | 3.0 | 5.0 | 0.00 | 0.00 | 0.00 | 46 | 1004.0 |
| 20260505051632 | 61 | 57 | 0.0 | 4.0 | 0.00 | 0.00 | 0.00 | 47 | 1004.0 |
| 20260505051555 | 61 | 216 | 2.0 | 10.0 | 0.00 | 0.00 | 0.00 | 47 | 1002.4 |
| 20260505051130 | 61 | 277 | 0.0 | 5.0 | 0.00 | 0.00 | 0.00 | 46 | 1004.1 |
| 20260505050627 | 61 | 246 | 4.0 | 7.0 | 0.00 | 0.00 | 0.00 | 46 | 1004.0 |
| 20260505050126 | 61 | 220 | 3.0 | 6.0 | 0.00 | 0.00 | 0.00 | 46 | 1004.1 |
| 20260505041555 | 62 | 57 | 2.0 | 5.0 | 0.00 | 0.00 | 0.00 | 46 | 1003.7 |
| 20260505041053 | 62 | 52 | 2.0 | 6.0 | 0.00 | 0.00 | 0.00 | 44 | 1003.6 |
| 20260505040550 | 62 | 235 | 0.0 | 7.0 | 0.00 | 0.00 | 0.00 | 44 | 1003.7 |
| 20260505040056 | 62 | 170 | 1.0 | 9.0 | 0.00 | 0.00 | 0.00 | 45 | 1001.9 |
| 20260505040047 | 62 | 31 | 0.0 | 3.0 | 0.00 | 0.00 | 0.00 | 46 | 1003.4 |
| 20260505035543 | 62 | 231 | 5.0 | 10.0 | 0.00 | 0.00 | 0.00 | 44 | 1003.4 |
| 20260505035040 | 62 | 96 | 1.0 | 6.0 | 0.00 | 0.00 | 0.00 | 44 | 1003.7 |
| 20260505034536 | 62 | 77 | 2.0 | 3.0 | 0.00 | 0.00 | 0.00 | 45 | 1003.5 |
| 20260505034033 | 62 | 47 | 0.0 | 4.0 | 0.00 | 0.00 | 0.00 | 44 | 1003.6 |
| 20260505033530 | 63 | 236 | 2.0 | 7.0 | 0.00 | 0.00 | 0.00 | 44 | 1003.4 |
| 20260505033028 | 63 | 250 | 2.0 | 6.0 | 0.00 | 0.00 | 0.00 | 43 | 1003.4 |
| 20260505032526 | 63 | 28 | 2.0 | 3.0 | 0.00 | 0.00 | 0.00 | 44 | 1003.6 |
| 20260505032022 | 63 | 293 | 1.0 | 9.0 | 0.00 | 0.00 | 0.00 | 42 | 1003.2 |
| 20260505031554 | 63 | 191 | 2.0 | 14.0 | 0.00 | 0.00 | 0.00 | 43 | 1001.8 |
| 20260505031519 | 63 | 41 | 2.0 | 7.0 | 0.00 | 0.00 | 0.00 | 42 | 1003.3 |
| 20260505031015 | 63 | 259 | 4.0 | 17.0 | 0.00 | 0.00 | 0.00 | 43 | 1003.5 |
| 20260505030512 | 63 | 89 | 0.0 | 6.0 | 0.00 | 0.00 | 0.00 | 43 | 1003.4 |
| 20260505030055 | 63 | 248 | 2.0 | 12.0 | 0.00 | 0.00 | 0.00 | 43 | 1002.0 |
| 20260505030009 | 63 | 50 | 1.0 | 11.0 | 0.00 | 0.00 | 0.00 | 43 | 1003.5 |
| 20260505025504 | 63 | 238 | 4.0 | 6.0 | 0.00 | 0.00 | 0.00 | 44 | 1003.5 |
| 20260505025004 | 63 | 336 | 3.0 | 12.0 | 0.00 | 0.00 | 0.00 | 43 | 1003.5 |
| 20260505024500 | 63 | 86 | 2.0 | 3.0 | 0.00 | 0.00 | 0.00 | 43 | 1003.8 |
| 20260505023957 | 63 | 34 | 2.0 | 12.0 | 0.00 | 0.00 | 0.00 | 44 | 1003.7 |
| 20260505023454 | 63 | 336 | 1.0 | 7.0 | 0.00 | 0.00 | 0.00 | 42 | 1003.9 |
| 20260505022952 | 63 | 230 | 3.0 | 3.0 | 0.00 | 0.00 | 0.00 | 43 | 1003.8 |
| 20260505022449 | 64 | 239 | 0.0 | 5.0 | 0.00 | 0.00 | 0.00 | 42 | 1003.8 |
| 20260505021946 | 64 | 238 | 1.0 | 4.0 | 0.00 | 0.00 | 0.00 | 42 | 1003.8 |
| 20260505021555 | 64 | 250 | 1.0 | 5.0 | 0.00 | 0.00 | 0.00 | 42 | 1002.4 |
| 20260505021443 | 63 | 308 | 0.0 | 5.0 | 0.00 | 0.00 | 0.00 | 42 | 1003.9 |
| 20260505020938 | 64 | 44 | 0.0 | 2.0 | 0.00 | 0.00 | 0.00 | 42 | 1004.1 |
| 20260505020434 | 64 | 225 | 2.0 | 5.0 | 0.00 | 0.00 | 0.00 | 42 | 1003.8 |
| 20260505020055 | 65 | 228 | 1.0 | 16.0 | 0.00 | 0.00 | 0.00 | 40 | 1002.3 |
| 20260505015931 | 64 | 36 | 2.0 | 3.0 | 0.00 | 0.00 | 0.00 | 42 | 1003.7 |
| 20260505015428 | 65 | 234 | 4.0 | 5.0 | 0.00 | 0.00 | 0.00 | 41 | 1004.0 |
| 20260505014925 | 65 | 265 | 0.0 | 6.0 | 0.00 | 0.00 | 0.00 | 40 | 1003.9 |
| 20260505014554 | 65 | 39 | 1.0 | 13.0 | 0.00 | 0.00 | 0.00 | 42 | 1002.4 |
| 20260505014422 | 65 | 63 | 2.0 | 5.0 | 0.00 | 0.00 | 0.00 | 40 | 1003.9 |
| 20260505013919 | 65 | 249 | 4.0 | 15.0 | 0.00 | 0.00 | 0.00 | 40 | 1003.8 |
| 20260505013416 | 65 | 254 | 3.0 | 4.0 | 0.00 | 0.00 | 0.00 | 41 | 1003.7 |
| 20260505013055 | 65 | 221 | 3.0 | 12.0 | 0.00 | 0.00 | 0.00 | 40 | 1002.4 |
| 20260505012914 | 64 | 230 | 4.0 | 4.0 | 0.00 | 0.00 | 0.00 | 41 | 1003.8 |
| 20260505012412 | 64 | 267 | 2.0 | 4.0 | 0.00 | 0.00 | 0.00 | 40 | 1004.0 |
| 20260505011908 | 65 | 344 | 1.0 | 5.0 | 0.00 | 0.00 | 0.00 | 41 | 1003.8 |
| 20260505011554 | 65 | 257 | 2.0 | 6.0 | 0.00 | 0.00 | 0.00 | 39 | 1002.2 |
| 20260505011404 | 65 | 279 | 1.0 | 4.0 | 0.00 | 0.00 | 0.00 | 40 | 1003.6 |
| 20260505010901 | 65 | 232 | 0.0 | 4.0 | 0.00 | 0.00 | 0.00 | 41 | 1003.6 |
| 20260505010357 | 65 | 286 | 1.0 | 3.0 | 0.00 | 0.00 | 0.00 | 40 | 1003.7 |
| 20260505010054 | 65 | 243 | 1.0 | 7.0 | 0.00 | 0.00 | 0.00 | 40 | 1002.2 |
| 20260505005853 | 65 | 247 | 4.0 | 4.0 | 0.00 | 0.00 | 0.00 | 40 | 1003.6 |
| 20260505005350 | 66 | 239 | 3.0 | 5.0 | 0.00 | 0.00 | 0.00 | 39 | 1003.4 |
| 20260505004848 | 66 | 233 | 4.0 | 7.0 | 0.00 | 0.00 | 0.00 | 38 | 1003.6 |
| 20260505004555 | 66 | 231 | 2.0 | 6.0 | 0.00 | 0.00 | 0.00 | 38 | 1002.2 |
| 20260505004343 | 66 | 230 | 2.0 | 3.0 | 0.00 | 0.00 | 0.00 | 39 | 1003.6 |
| 20260505003841 | 66 | 77 | 3.0 | 8.0 | 0.00 | 0.00 | 0.00 | 38 | 1003.5 |
| 20260505003338 | 66 | 223 | 0.0 | 5.0 | 0.00 | 0.00 | 0.00 | 37 | 1003.4 |
| 20260505003056 | 66 | 231 | 3.0 | 10.0 | 0.00 | 0.00 | 0.00 | 37 | 1002.0 |
| 20260505002834 | 66 | 231 | 4.0 | 13.0 | 0.00 | 0.00 | 0.00 | 37 | 1003.2 |
| 20260505002331 | 66 | 261 | 3.0 | 6.0 | 0.00 | 0.00 | 0.00 | 37 | 1003.6 |
| 20260505001829 | 66 | 228 | 0.0 | 3.0 | 0.00 | 0.00 | 0.00 | 37 | 1003.1 |
| 20260505001555 | 67 | 247 | 3.0 | 9.0 | 0.00 | 0.00 | 0.00 | 35 | 1001.6 |
| 20260505001326 | 66 | 249 | 2.0 | 10.0 | 0.00 | 0.00 | 0.00 | 37 | 1003.0 |
| 20260505000823 | 67 | 226 | 4.0 | 4.0 | 0.00 | 0.00 | 0.00 | 37 | 1003.1 |
| 20260505000321 | 67 | 260 | 0.0 | 2.0 | 0.00 | 0.00 | 0.00 | 36 | 1003.0 |
| 20260505000055 | 68 | 238 | 1.0 | 7.0 | 0.00 | 0.00 | 0.00 | 34 | 1001.7 |
| 20260504235817 | 68 | 293 | 0.0 | 5.0 | 0.00 | 0.00 | 0.00 | 34 | 1003.0 |
| 20260504235314 | 68 | 299 | 2.0 | 8.0 | 0.00 | 0.00 | 0.00 | 34 | 1002.8 |
| 20260504234811 | 67 | 269 | 1.0 | 5.0 | 0.00 | 0.00 | 0.00 | 35 | 1002.9 |
| 20260504234554 | 68 | 156 | 3.0 | 7.0 | 0.00 | 0.00 | 0.00 | 33 | 1001.7 |
| 20260504234309 | 68 | 239 | 4.0 | 4.0 | 0.00 | 0.00 | 0.00 | 35 | 1003.0 |
| 20260504233805 | 68 | 3 | 0.0 | 5.0 | 0.00 | 0.00 | 0.00 | 35 | 1002.8 |
| 20260504233301 | 68 | 278 | 2.0 | 8.0 | 0.00 | 0.00 | 0.00 | 34 | 1002.8 |
| 20260504233055 | 68 | 226 | 1.0 | 9.0 | 0.00 | 0.00 | 0.00 | 34 | 1001.6 |
| 20260504232758 | 68 | 265 | 2.0 | 8.0 | 0.00 | 0.00 | 0.00 | 35 | 1002.8 |
| 20260504232255 | 68 | 220 | 3.0 | 5.0 | 0.00 | 0.00 | 0.00 | 34 | 1002.8 |
| 20260504231752 | 68 | 247 | 3.0 | 6.0 | 0.00 | 0.00 | 0.00 | 35 | 1002.7 |
| 20260504231248 | 68 | 238 | 4.0 | 10.0 | 0.00 | 0.00 | 0.00 | 34 | 1002.5 |
| 20260504230744 | 69 | 231 | 5.0 | 6.0 | 0.00 | 0.00 | 0.00 | 35 | 1002.6 |
| 20260504230243 | 68 | 250 | 5.0 | 9.0 | 0.00 | 0.00 | 0.00 | 34 | 1002.6 |
| 20260504230055 | 69 | 229 | 5.0 | 9.0 | 0.00 | 0.00 | 0.00 | 31 | 1001.4 |
| 20260504225741 | 69 | 222 | 4.0 | 5.0 | 0.00 | 0.00 | 0.00 | 34 | 1002.6 |
| 20260504225237 | 69 | 222 | 4.0 | 5.0 | 0.00 | 0.00 | 0.00 | 33 | 1002.5 |
| 20260504224734 | 69 | 39 | 0.0 | 4.0 | 0.00 | 0.00 | 0.00 | 33 | 1002.5 |
| 20260504224555 | 69 | 230 | 3.0 | 7.0 | 0.00 | 0.00 | 0.00 | 32 | 1001.4 |
| 20260504224231 | 69 | 45 | 1.0 | 2.0 | 0.00 | 0.00 | 0.00 | 34 | 1002.6 |
| 20260504223728 | 69 | 273 | 2.0 | 4.0 | 0.00 | 0.00 | 0.00 | 34 | 1002.5 |
| 20260504223223 | 69 | 28 | 2.0 | 5.0 | 0.00 | 0.00 | 0.00 | 33 | 1002.5 |
| 20260504223056 | 69 | 230 | 2.0 | 12.0 | 0.00 | 0.00 | 0.00 | 32 | 1001.4 |
| 20260504222721 | 69 | 232 | 5.0 | 5.0 | 0.00 | 0.00 | 0.00 | 34 | 1002.5 |
| 20260504222217 | 69 | 232 | 8.0 | 9.0 | 0.00 | 0.00 | 0.00 | 34 | 1002.3 |
| 20260504221715 | 69 | 173 | 2.0 | 7.0 | 0.00 | 0.00 | 0.00 | 33 | 1002.6 |
| 20260504221557 | 69 | 221 | 2.0 | 7.0 | 0.00 | 0.00 | 0.00 | 32 | 1001.4 |
| 20260504221212 | 69 | 306 | 0.0 | 4.0 | 0.00 | 0.00 | 0.00 | 34 | 1002.4 |
| 20260504220708 | 69 | 256 | 4.0 | 4.0 | 0.00 | 0.00 | 0.00 | 33 | 1002.5 |
| 20260504220206 | 69 | 287 | 3.0 | 4.0 | 0.00 | 0.00 | 0.00 | 34 | 1002.5 |
| 20260504220054 | 69 | 230 | 2.0 | 8.0 | 0.00 | 0.00 | 0.00 | 32 | 1001.4 |
| 20260504215702 | 70 | 231 | 7.0 | 8.0 | 0.00 | 0.00 | 0.00 | 33 | 1002.6 |
| 20260504215159 | 69 | 254 | 3.0 | 5.0 | 0.00 | 0.00 | 0.00 | 32 | 1002.5 |
| 20260504214655 | 69 | 231 | 4.0 | 8.0 | 0.00 | 0.00 | 0.00 | 34 | 1002.5 |
| 20260504214554 | 69 | 222 | 5.0 | 10.0 | 0.00 | 0.00 | 0.00 | 31 | 1001.4 |
| 20260504214152 | 69 | 349 | 1.0 | 5.0 | 0.00 | 0.00 | 0.00 | 34 | 1002.4 |
| 20260504213648 | 70 | 260 | 1.0 | 4.0 | 0.00 | 0.00 | 0.00 | 33 | 1002.6 |
| 20260504213145 | 69 | 15 | 2.0 | 3.0 | 0.00 | 0.00 | 0.00 | 33 | 1002.4 |
| 20260504213056 | 69 | 222 | 2.0 | 8.0 | 0.00 | 0.00 | 0.00 | 32 | 1001.4 |
| 20260504212641 | 69 | 236 | 6.0 | 6.0 | 0.00 | 0.00 | 0.00 | 33 | 1002.5 |
| 20260504212138 | 69 | 318 | 0.0 | 10.0 | 0.00 | 0.00 | 0.00 | 33 | 1002.4 |
| 20260504211636 | 69 | 240 | 3.0 | 6.0 | 0.00 | 0.00 | 0.00 | 33 | 1002.5 |
| 20260504211555 | 70 | 225 | 3.0 | 6.0 | 0.00 | 0.00 | 0.00 | 33 | 1001.4 |
| 20260504211132 | 70 | 236 | 3.0 | 8.0 | 0.00 | 0.00 | 0.00 | 33 | 1002.5 |
| 20260504210630 | 70 | 252 | 2.0 | 6.0 | 0.00 | 0.00 | 0.00 | 33 | 1002.7 |
| 20260504210126 | 69 | 303 | 0.0 | 4.0 | 0.00 | 0.00 | 0.00 | 33 | 1002.9 |
| 20260504210055 | 69 | 241 | 2.0 | 7.0 | 0.00 | 0.00 | 0.00 | 32 | 1001.7 |
| 20260504205624 | 69 | 250 | 2.0 | 6.0 | 0.00 | 0.00 | 0.00 | 34 | 1002.8 |
| 20260504205121 | 69 | 227 | 6.0 | 6.0 | 0.00 | 0.00 | 0.00 | 35 | 1003.0 |
| 20260504204620 | 71 | 229 | 4.0 | 10.0 | 0.00 | 0.00 | 0.00 | 32 | 1002.9 |
| 20260504204555 | 70 | 237 | 3.0 | 9.0 | 0.00 | 0.00 | 0.00 | 32 | 1001.8 |
| 20260504204118 | 70 | 299 | 2.0 | 7.0 | 0.00 | 0.00 | 0.00 | 32 | 1003.0 |
| 20260504203616 | 68 | 233 | 6.0 | 6.0 | 0.00 | 0.00 | 0.00 | 36 | 1003.2 |
| 20260504203113 | 69 | 137 | 2.0 | 9.0 | 0.00 | 0.00 | 0.00 | 32 | 1003.3 |
| 20260504203055 | 69 | 233 | 3.0 | 10.0 | 0.00 | 0.00 | 0.00 | 31 | 1002.1 |
| 20260504202608 | 70 | 252 | 9.0 | 9.0 | 0.00 | 0.00 | 0.00 | 34 | 1003.3 |
| 20260504202105 | 70 | 230 | 4.0 | 6.0 | 0.00 | 0.00 | 0.00 | 35 | 1003.5 |
| 20260504201602 | 70 | 29 | 4.0 | 7.0 | 0.00 | 0.00 | 0.00 | 32 | 1003.3 |
| 20260504201554 | 70 | 245 | 3.0 | 7.0 | 0.00 | 0.00 | 0.00 | 30 | 1002.3 |
| 20260504201100 | 70 | 234 | 6.0 | 6.0 | 0.00 | 0.00 | 0.00 | 35 | 1003.3 |
| 20260504200556 | 72 | 185 | 2.0 | 5.0 | 0.00 | 0.00 | 0.00 | 34 | 1003.4 |
| 20260504200053 | 72 | 233 | 2.0 | 6.0 | 0.00 | 0.00 | 0.00 | 35 | 1003.5 |
| 20260504195549 | 74 | 224 | 10.0 | 12.0 | 0.00 | 0.00 | 0.00 | 30 | 1003.3 |
| 20260504195046 | 73 | 293 | 0.0 | 4.0 | 0.00 | 0.00 | 0.00 | 32 | 1003.6 |
| 20260504194555 | 73 | 233 | 2.0 | 5.0 | 0.00 | 0.00 | 0.00 | 28 | 1002.3 |
| 20260504194543 | 73 | 248 | 2.0 | 6.0 | 0.00 | 0.00 | 0.00 | 30 | 1003.6 |
| 20260504194038 | 74 | 234 | 4.0 | 4.0 | 0.00 | 0.00 | 0.00 | 31 | 1003.7 |
| 20260504193535 | 75 | 265 | 2.0 | 4.0 | 0.00 | 0.00 | 0.00 | 34 | 1003.9 |
| 20260504193056 | 72 | 229 | 2.0 | 9.0 | 0.00 | 0.00 | 0.00 | 36 | 1002.5 |
| 20260504193034 | 73 | 243 | 3.0 | 5.0 | 0.00 | 0.00 | 0.00 | 37 | 1003.8 |
| 20260504192531 | 73 | 227 | 4.0 | 10.0 | 0.00 | 0.00 | 0.00 | 30 | 1003.8 |
| 20260504192029 | 71 | 30 | 2.0 | 4.0 | 0.00 | 0.00 | 0.00 | 29 | 1004.1 |
| 20260504191556 | 72 | 226 | 3.0 | 5.0 | 0.00 | 0.00 | 0.00 | 31 | 1002.8 |
| 20260504191527 | 71 | 191 | 0.0 | 6.0 | 0.00 | 0.00 | 0.00 | 30 | 1004.1 |
| 20260504191023 | 73 | 288 | 2.0 | 4.0 | 0.00 | 0.00 | 0.00 | 29 | 1004.2 |
| 20260504190519 | 73 | 262 | 3.0 | 6.0 | 0.00 | 0.00 | 0.00 | 35 | 1004.1 |
| 20260504190055 | 72 | 221 | 2.0 | 12.0 | 0.00 | 0.00 | 0.00 | 33 | 1002.7 |
| 20260504190015 | 72 | 227 | 4.0 | 4.0 | 0.00 | 0.00 | 0.00 | 35 | 1004.1 |
| 20260504185512 | 71 | 240 | 5.0 | 11.0 | 0.00 | 0.00 | 0.00 | 34 | 1004.3 |
| 20260504185009 | 72 | 227 | 12.0 | 13.0 | 0.00 | 0.00 | 0.00 | 31 | 1004.4 |
| 20260504184555 | 71 | 218 | 2.0 | 9.0 | 0.00 | 0.00 | 0.00 | 31 | 1002.8 |
| 20260504184504 | 71 | 242 | 4.0 | 6.0 | 0.00 | 0.00 | 0.00 | 33 | 1004.1 |
| 20260504184000 | 71 | 224 | 3.0 | 9.0 | 0.00 | 0.00 | 0.00 | 34 | 1004.2 |
| 20260504183457 | 71 | 233 | 1.0 | 2.0 | 0.00 | 0.00 | 0.00 | 33 | 1004.2 |
| 20260504183056 | 71 | 241 | 3.0 | 6.0 | 0.00 | 0.00 | 0.00 | 30 | 1002.8 |
| 20260504182955 | 71 | 275 | 2.0 | 6.0 | 0.00 | 0.00 | 0.00 | 37 | 1004.2 |
| 20260504182452 | 73 | 246 | 1.0 | 5.0 | 0.00 | 0.00 | 0.00 | 39 | 1004.3 |
| 20260504181949 | 72 | 242 | 3.0 | 5.0 | 0.00 | 0.00 | 0.00 | 34 | 1004.4 |
| 20260504181555 | 70 | 253 | 2.0 | 9.0 | 0.00 | 0.00 | 0.00 | 37 | 1003.0 |
| 20260504181446 | 71 | 265 | 2.0 | 5.0 | 0.00 | 0.00 | 0.00 | 35 | 1004.3 |
| 20260504180945 | 69 | 304 | 2.0 | 4.0 | 0.00 | 0.00 | 0.00 | 37 | 1004.6 |
| 20260504180443 | 69 | 225 | 3.0 | 10.0 | 0.00 | 0.00 | 0.00 | 32 | 1004.6 |
| 20260504180055 | 68 | 247 | 3.0 | 14.0 | 0.00 | 0.00 | 0.00 | 35 | 1003.3 |
| 20260504175941 | 68 | 235 | 3.0 | 9.0 | 0.00 | 0.00 | 0.00 | 41 | 1004.8 |
| 20260504175438 | 68 | 233 | 10.0 | 10.0 | 0.00 | 0.00 | 0.00 | 36 | 1004.8 |
| 20260504174935 | 69 | 309 | 0.0 | 4.0 | 0.00 | 0.00 | 0.00 | 39 | 1004.5 |
| 20260504174555 | 69 | 233 | 3.0 | 10.0 | 0.00 | 0.00 | 0.00 | 39 | 1003.4 |
| 20260504174433 | 69 | 244 | 3.0 | 7.0 | 0.00 | 0.00 | 0.00 | 36 | 1004.6 |
| 20260504173930 | 68 | 227 | 3.0 | 8.0 | 0.00 | 0.00 | 0.00 | 33 | 1004.7 |
| 20260504173426 | 70 | 233 | 5.0 | 8.0 | 0.00 | 0.00 | 0.00 | 39 | 1004.9 |
| 20260504173055 | 69 | 263 | 2.0 | 10.0 | 0.00 | 0.00 | 0.00 | 33 | 1003.3 |
| 20260504172924 | 69 | 227 | 5.0 | 8.0 | 0.00 | 0.00 | 0.00 | 38 | 1004.8 |
| 20260504172420 | 69 | 255 | 4.0 | 8.0 | 0.00 | 0.00 | 0.00 | 38 | 1004.8 |
| 20260504171916 | 70 | 250 | 5.0 | 9.0 | 0.00 | 0.00 | 0.00 | 32 | 1005.0 |
| 20260504171555 | 69 | 225 | 2.0 | 9.0 | 0.00 | 0.00 | 0.00 | 39 | 1003.6 |
| 20260504171414 | 69 | 218 | 4.0 | 6.0 | 0.00 | 0.00 | 0.00 | 34 | 1004.8 |
| 20260504170910 | 68 | 233 | 4.0 | 5.0 | 0.00 | 0.00 | 0.00 | 40 | 1005.2 |
| 20260504170407 | 68 | 264 | 2.0 | 11.0 | 0.00 | 0.00 | 0.00 | 37 | 1005.2 |
| 20260504160326 | 65 | 257 | 5.0 | 6.0 | 0.00 | 0.00 | 0.00 | 36 | 1006.1 |
| 20260504150750 | 63 | 241 | 2.0 | 6.0 | 0.00 | 0.00 | 0.00 | 44 | 1006.7 |
| 20260504150247 | 63 | 252 | 3.0 | 6.0 | 0.00 | 0.00 | 0.00 | 37 | 1006.8 |